Location: Ostrava
(49.8330°N, 18.2830°E)
Time: 12:24:26
(UTC+02:00)

Lacrosse 5 - Visible Passes

Search period start: 24 April 2018 00:00
Search period end: 04 May 2018 00:00
Orbit: 717 x 721 km, 57.0° (Epoch: 22 April)

Date Brightness Start Highest point End Pass type
(mag) Time Alt. Az. Time Alt. Az. Time Alt. Az.
24 Apr 2.6 20:48:46 10° NW 20:53:41 47° NNE 20:58:35 10° E visible
24 Apr 1.9 22:31:51 10° WNW 22:36:53 66° SW 22:38:01 50° SSE visible
25 Apr 4.2 00:16:12 10° W 00:17:13 13° W 00:17:13 13° W visible
25 Apr 1.9 21:38:36 10° WNW 21:43:43 83° NNE 21:46:42 25° ESE visible
25 Apr 3.2 23:22:06 10° WNW 23:25:54 25° WSW 23:25:54 25° WSW visible
26 Apr 2.2 20:45:23 10° NW 20:50:26 60° NNE 20:55:25 10° ESE visible
26 Apr 2.5 22:28:33 10° WNW 22:33:19 42° SW 22:34:36 35° S visible
27 Apr 2.0 21:35:13 10° WNW 21:40:16 67° SW 21:43:21 23° SE visible
27 Apr 3.9 23:19:32 10° W 23:22:26 15° WSW 23:22:33 15° WSW visible
28 Apr 1.9 20:41:58 10° WNW 20:47:05 83° NE 20:52:08 10° ESE visible
28 Apr 3.3 22:25:27 10° WNW 22:29:37 26° SW 22:31:20 21° SSW visible
29 Apr 2.6 21:31:54 10° WNW 21:36:41 42° SW 21:40:10 17° SSE visible
30 Apr 2.1 20:38:34 10° WNW 20:43:37 68° SW 20:48:39 10° SE visible
30 Apr 4.0 22:22:52 10° W 22:25:48 16° WSW 22:28:15 11° SSW visible
01 May 3.4 21:28:49 10° WNW 21:32:59 26° SW 21:37:10 10° S visible
02 May 2.8 20:35:16 10° WNW 20:40:03 43° SW 20:44:49 10° SSE visible
03 May 4.2 21:26:12 10° W 21:29:10 16° WSW 21:32:08 10° SSW visible
